DW8501 Madrid ES current weather conditions

sailwx.info

Wind from 037 at 3 knots gusting 6

Air temperature 11.1° C
Dewpoint 3.4° C

Last reported at 2018-Jan-19 19:05 UTC.
Time now 2018-Jan-19 19:50 UTC

Location: N 40°27' W 003°35'.
View on Google Maps.

See reports from other nearby stations

  
Tides and Currents Weather Stations Pressure Air Temp Water Temp Dewpoint Dewpoint Depression Visibility Wind Speed Wind Dir Waves Ship Positions
date/time (UTC)wind fromknots sea level pressurealtimeterstation pressurevisibilityair tempwater tempwave heightnotes
2018-Jan-19 19:05 037 3 gusting 6 11.1
2018-Jan-19 19:00 040 3 gusting 6 11.1
2018-Jan-19 18:55 053 2 gusting 7 11.1
2018-Jan-19 18:50 049 3 gusting 9 11.1
2018-Jan-19 18:45 040 6 gusting 9 11.7
2018-Jan-19 18:40 047 6 gusting 8 11.7
2018-Jan-19 18:35 059 3 gusting 6 11.7
2018-Jan-19 18:30 070 3 gusting 8 11.7
2018-Jan-19 18:20 051 6 gusting 8 11.7
2018-Jan-19 18:15 054 1 gusting 5 11.7
2018-Jan-19 18:05 056 2 gusting 8 12.2
2018-Jan-19 18:00 047 1 gusting 8 12.2
2018-Jan-19 17:55 051 4 gusting 8 12.2
2018-Jan-19 17:50 052 3 gusting 8 12.2
2018-Jan-19 17:45 048 5 gusting 8 12.8
2018-Jan-19 17:40 052 3 gusting 7 12.8
2018-Jan-19 17:35 050 3 gusting 7 12.8
2018-Jan-19 17:30 048 2 gusting 5 12.8
2018-Jan-19 17:25 052 0 gusting 6 13.3
2018-Jan-19 17:20 052 3 gusting 6 13.3
2018-Jan-19 17:10 041 3 gusting 3 4.4
2018-Jan-19 17:00 041 3 gusting 3 4.4
2018-Jan-19 16:55 041 3 gusting 3 4.4
2018-Jan-19 16:50 041 3 gusting 3 4.4
2018-Jan-19 16:45 041 3 gusting 3 4.4
2018-Jan-19 16:40 041 3 gusting 3 4.4
2018-Jan-19 16:35 041 3 gusting 3 4.4
2018-Jan-19 16:30 041 3 gusting 3 4.4
2018-Jan-19 16:25 041 3 gusting 3 4.4
2018-Jan-19 16:20 041 3 gusting 3 4.4
2018-Jan-19 16:15 041 3 gusting 3 4.4
2018-Jan-19 16:05 041 3 gusting 3 4.4
2018-Jan-19 16:00 041 3 gusting 3 4.4
2018-Jan-19 15:55 041 3 gusting 3 4.4
2018-Jan-19 15:30 041 3 gusting 3 4.4
2018-Jan-19 15:25 041 3 gusting 3 4.4
2018-Jan-19 15:20 041 3 gusting 3 4.4
2018-Jan-19 15:15 041 3 gusting 3 4.4
2018-Jan-19 15:10 041 3 gusting 3 4.4
2018-Jan-19 15:05 041 3 gusting 3 4.4
2018-Jan-19 15:00 041 3 gusting 3 4.4
2018-Jan-19 14:55 041 3 gusting 3 4.4
2018-Jan-19 14:50 041 3 gusting 3 4.4
2018-Jan-19 14:45 041 3 gusting 3 4.4
2018-Jan-19 14:35 041 3 gusting 3 4.4
2018-Jan-19 14:25 041 3 gusting 3 4.4
2018-Jan-19 14:20 041 3 gusting 3 4.4
2018-Jan-19 14:15 041 3 gusting 3 4.4
2018-Jan-19 14:10 041 3 gusting 3 4.4
2018-Jan-19 14:05 041 3 gusting 3 4.4
2018-Jan-19 14:00 041 3 gusting 3 4.4
2018-Jan-19 13:55 041 3 gusting 3 4.4
2018-Jan-19 13:50 041 3 gusting 3 4.4
2018-Jan-19 13:45 041 3 gusting 3 4.4
2018-Jan-19 13:40 041 3 gusting 3 4.4
2018-Jan-19 13:35 041 3 gusting 3 4.4
2018-Jan-19 13:25 041 3 gusting 3 4.4
2018-Jan-19 13:20 041 3 gusting 3 4.4
2018-Jan-19 13:15 041 3 gusting 3 4.4
2018-Jan-19 13:05 041 3 gusting 3 4.4
2018-Jan-19 13:00 041 3 gusting 3 4.4
2018-Jan-19 12:55 041 3 gusting 3 4.4
2018-Jan-19 12:50 041 3 gusting 3 4.4
2018-Jan-19 12:45 041 3 gusting 3 4.4
2018-Jan-19 12:40 041 3 gusting 3 4.4
2018-Jan-19 12:35 041 3 gusting 3 4.4
2018-Jan-19 12:30 041 3 gusting 3 4.4
2018-Jan-19 12:20 041 3 gusting 3 4.4
2018-Jan-19 12:10 041 3 gusting 3 4.4
2018-Jan-19 12:05 041 3 gusting 3 4.4
2018-Jan-19 12:00 041 3 gusting 3 4.4
2018-Jan-19 11:50 041 3 gusting 3 4.4
2018-Jan-19 11:45 041 3 gusting 3 4.4
2018-Jan-19 11:40 041 3 gusting 3 4.4
2018-Jan-19 11:30 041 3 gusting 3 4.4
2018-Jan-19 11:25 041 3 gusting 3 4.4
2018-Jan-19 11:20 041 3 gusting 3 4.4
2018-Jan-19 11:15 041 3 gusting 3 4.4
2018-Jan-19 11:10 041 3 gusting 3 4.4
2018-Jan-19 11:05 041 3 gusting 3 4.4
2018-Jan-19 11:00 041 3 gusting 3 4.4
2018-Jan-19 10:55 041 3 gusting 3 4.4
2018-Jan-19 10:50 041 3 gusting 3 4.4
2018-Jan-19 10:40 041 3 gusting 3 4.4
2018-Jan-19 10:35 041 3 gusting 3 4.4
2018-Jan-19 10:25 041 3 gusting 3 4.4
2018-Jan-19 10:20 041 3 gusting 3 4.4
2018-Jan-19 10:10 041 3 gusting 3 4.4
2018-Jan-19 10:05 041 3 gusting 3 4.4
2018-Jan-19 09:55 041 3 gusting 3 4.4
2018-Jan-19 09:50 041 3 gusting 3 4.4
2018-Jan-19 09:45 041 3 gusting 3 4.4
2018-Jan-19 09:40 041 3 gusting 3 4.4
2018-Jan-19 09:35 041 3 gusting 3 4.4
2018-Jan-19 09:30 041 3 gusting 3 4.4
2018-Jan-19 09:20 041 3 gusting 3 4.4
2018-Jan-19 09:15 041 3 gusting 3 4.4
2018-Jan-19 09:10 041 3 gusting 3 4.4
2018-Jan-19 09:05 041 3 gusting 3 4.4
2018-Jan-19 09:00 041 3 gusting 3 4.4
2018-Jan-19 08:55 041 3 gusting 3 4.4
2018-Jan-19 08:50 041 3 gusting 3 4.4
2018-Jan-19 08:45 041 3 gusting 3 4.4
2018-Jan-19 08:40 041 3 gusting 3 4.4
2018-Jan-19 08:35 041 3 gusting 3 4.4
2018-Jan-19 08:30 041 3 gusting 3 4.4
2018-Jan-19 08:25 041 3 gusting 3 4.4
2018-Jan-19 08:20 041 3 gusting 3 4.4
2018-Jan-19 08:15 041 3 gusting 3 4.4
2018-Jan-19 08:10 041 3 gusting 3 4.4
2018-Jan-19 08:05 041 3 gusting 3 4.4
2018-Jan-19 08:00 041 3 gusting 3 4.4
2018-Jan-19 07:55 041 3 gusting 3 4.4
2018-Jan-19 07:50 041 3 gusting 3 4.4
2018-Jan-19 07:45 041 3 gusting 3 4.4
2018-Jan-19 07:40 041 3 gusting 3 4.4
2018-Jan-19 07:35 041 3 gusting 3 4.4
2018-Jan-19 07:20 041 3 gusting 3 4.4
2018-Jan-19 07:15 041 3 gusting 3 4.4
2018-Jan-19 07:05 041 3 gusting 3 4.4
2018-Jan-19 07:00 041 3 gusting 3 4.4
2018-Jan-19 06:55 041 3 gusting 3 4.4
2018-Jan-19 06:45 041 3 gusting 3 4.4
2018-Jan-19 06:40 041 3 gusting 3 4.4
2018-Jan-19 06:35 041 3 gusting 3 4.4
2018-Jan-19 06:30 041 3 gusting 3 4.4
2018-Jan-19 06:25 041 3 gusting 3 4.4
2018-Jan-19 06:20 041 3 gusting 3 4.4
2018-Jan-19 06:15 041 3 gusting 3 4.4
2018-Jan-19 06:10 041 3 gusting 3 4.4
2018-Jan-19 06:00 041 3 gusting 3 4.4
2018-Jan-19 05:55 041 3 gusting 3 4.4
2018-Jan-19 05:50 041 3 gusting 3 4.4
2018-Jan-19 05:45 041 3 gusting 3 4.4
2018-Jan-19 05:40 041 3 gusting 3 4.4
2018-Jan-19 05:35 041 3 gusting 3 4.4
2018-Jan-19 05:30 041 3 gusting 3 4.4
2018-Jan-19 05:25 041 3 gusting 3 4.4
2018-Jan-19 05:20 041 3 gusting 3 4.4
2018-Jan-19 05:15 041 3 gusting 3 4.4
2018-Jan-19 05:05 041 3 gusting 3 4.4
2018-Jan-19 05:00 041 3 gusting 3 4.4
2018-Jan-19 04:55 041 3 gusting 3 4.4
2018-Jan-19 04:50 041 3 gusting 3 4.4
2018-Jan-19 04:30 041 3 gusting 3 4.4
2018-Jan-19 04:25 041 3 gusting 3 4.4
2018-Jan-19 04:20 041 3 gusting 3 4.4
2018-Jan-19 04:05 041 3 gusting 3 4.4
2018-Jan-19 04:00 041 3 gusting 3 4.4
2018-Jan-19 03:55 041 3 gusting 3 4.4
2018-Jan-19 03:50 041 3 gusting 3 4.4
2018-Jan-19 03:45 041 3 gusting 3 4.4
2018-Jan-19 03:40 041 3 gusting 3 4.4
2018-Jan-19 03:35 041 3 gusting 3 4.4
2018-Jan-19 03:30 041 3 gusting 3 4.4
2018-Jan-19 03:20 041 3 gusting 3 4.4
2018-Jan-19 03:15 041 3 gusting 3 4.4
2018-Jan-19 03:10 041 3 gusting 3 4.4
2018-Jan-19 03:00 041 3 gusting 3 4.4
2018-Jan-19 02:50 041 3 gusting 3 4.4
2018-Jan-19 02:45 041 3 gusting 3 4.4
2018-Jan-19 02:40 041 3 gusting 3 4.4
2018-Jan-19 02:35 041 3 gusting 3 4.4
2018-Jan-19 02:30 041 3 gusting 3 4.4
2018-Jan-19 02:25 041 3 gusting 3 4.4
2018-Jan-19 02:20 041 3 gusting 3 4.4
2018-Jan-19 02:10 041 3 gusting 3 4.4
2018-Jan-19 02:05 041 3 gusting 3 4.4
2018-Jan-19 02:00 041 3 gusting 3 4.4
2018-Jan-19 01:55 041 3 gusting 3 4.4
2018-Jan-19 01:50 041 3 gusting 3 4.4
2018-Jan-19 01:25 039 2 gusting 3 3.9
2018-Jan-19 01:20 034 0 gusting 3 3.9
2018-Jan-19 01:10 045 0 gusting 2 3.9
2018-Jan-19 01:05 034 0 gusting 3 3.9
2018-Jan-19 01:00 035 0 gusting 3 3.9
2018-Jan-19 00:55 051 0 gusting 1 3.9
2018-Jan-19 00:50 053 1 gusting 1 3.9
2018-Jan-19 00:45 062 0 gusting 1 3.9
2018-Jan-19 00:40 3.9
2018-Jan-19 00:35 049 0 gusting 1 3.9
2018-Jan-19 00:30 4.4
2018-Jan-19 00:20 056 1 gusting 2 4.4
2018-Jan-19 00:15 073 1 gusting 2 4.4
2018-Jan-19 00:10 4.4
2018-Jan-19 00:05 005 0 gusting 2 4.4
2018-Jan-18 23:55 4.4
2018-Jan-18 23:50 358 0 gusting 2 4.4
2018-Jan-18 23:45 349 0 gusting 1 4.4
2018-Jan-18 23:40 4.4
2018-Jan-18 23:35 4.4
2018-Jan-18 23:30 4.4
2018-Jan-18 23:25 345 1 gusting 3 4.4
2018-Jan-18 23:20 339 1 gusting 2 4.4
2018-Jan-18 23:15 327 1 gusting 2 4.4
2018-Jan-18 23:10 313 1 gusting 1 4.4
2018-Jan-18 23:05 325 1 gusting 2 5.0
2018-Jan-18 23:00 344 1 gusting 2 5.0
2018-Jan-18 22:55 355 1 gusting 2 5.0
2018-Jan-18 22:45 5.0
2018-Jan-18 22:40 5.6
2018-Jan-18 22:35 068 1 gusting 2 5.0
2018-Jan-18 22:30 089 0 gusting 3 5.6
2018-Jan-18 22:25 090 1 gusting 3 5.6
2018-Jan-18 22:20 095 1 gusting 3 5.6
2018-Jan-18 22:15 100 1 gusting 3 5.6
2018-Jan-18 22:10 090 1 gusting 2 5.6
2018-Jan-18 22:05 081 1 gusting 3 6.1
2018-Jan-18 22:00 077 1 gusting 4 6.1
2018-Jan-18 21:55 077 2 gusting 4 6.1
2018-Jan-18 21:50 076 2 gusting 4 6.1
2018-Jan-18 21:45 086 3 gusting 4 6.1
2018-Jan-18 21:40 098 3 gusting 4 6.7
2018-Jan-18 21:35 093 2 gusting 3 6.7
2018-Jan-18 21:30 090 1 gusting 1 6.7
2018-Jan-18 21:25 090 0 gusting 1 6.7
2018-Jan-18 21:20 087 0 gusting 1 6.7
2018-Jan-18 21:15 088 1 gusting 2 6.7
2018-Jan-18 21:10 090 1 gusting 2 6.7
2018-Jan-18 21:05 088 0 gusting 1 6.7
2018-Jan-18 21:00 086 1 gusting 1 7.2
2018-Jan-18 20:55 135 1 gusting 3 7.2
2018-Jan-18 20:50 138 0 gusting 3 7.8
2018-Jan-18 20:45 120 0 gusting 2 8.3
2018-Jan-18 20:40 127 0 gusting 2 8.3
2018-Jan-18 20:35 130 1 gusting 2 8.3
2018-Jan-18 20:25 057 0 gusting 3 8.9
2018-Jan-18 20:20 049 1 gusting 3 8.9
2018-Jan-18 20:15 050 1 gusting 3 8.9
2018-Jan-18 20:10 034 0 gusting 1 9.4
2018-Jan-18 20:05 280 1 gusting 1 9.4
2018-Jan-18 20:00 262 1 gusting 1 9.4
2018-Jan-18 19:55 259 0 gusting 1 9.4
2018-Jan-18 19:50 258 0 gusting 1 9.4
2018-Jan-18 19:40 299 1 gusting 2 9.4
2018-Jan-18 19:30 327 1 gusting 2 9.4
2018-Jan-18 19:25 351 0 gusting 1 9.4
2018-Jan-18 19:20 9.4
2018-Jan-18 19:05 215 3 gusting 5 10.6
2018-Jan-18 19:00 224 3 gusting 5 10.6
2018-Jan-18 18:55 229 3 gusting 5 10.6
2018-Jan-18 18:50 234 3 gusting 6 11.1
2018-Jan-18 18:45 234 3 gusting 6 11.1
2018-Jan-18 18:40 222 3 gusting 6 10.6
2018-Jan-18 18:35 209 2 gusting 6 10.6
2018-Jan-18 18:30 203 4 gusting 6 10.0
2018-Jan-18 18:25 206 2 gusting 6 10.0
2018-Jan-18 18:20 208 1 gusting 6 10.6
2018-Jan-18 18:15 188 3 gusting 5 10.6
2018-Jan-18 18:10 189 3 gusting 4 11.1
2018-Jan-18 18:05 213 2 gusting 3 11.1
2018-Jan-18 18:00 219 2 gusting 3 11.1
2018-Jan-18 17:55 208 2 gusting 3 11.1
2018-Jan-18 17:50 205 2 gusting 3 11.1
2018-Jan-18 17:45 208 1 gusting 3 11.7
2018-Jan-18 17:40 210 2 gusting 3 11.7
2018-Jan-18 17:35 207 1 gusting 4 11.7
2018-Jan-18 17:30 210 3 gusting 4 11.7
2018-Jan-18 17:25 211 2 gusting 3 12.2
2018-Jan-18 17:20 204 1 gusting 3 12.2
2018-Jan-18 17:05 190 1 gusting 3 13.9
2018-Jan-18 17:00 200 2 gusting 3 14.4
2018-Jan-18 16:55 186 1 gusting 3 15.6
2018-Jan-18 16:50 171 2 gusting 3 16.7
2018-Jan-18 16:45 162 1 gusting 3 17.8
2018-Jan-18 16:40 17.8
2018-Jan-18 16:35 18.3
2018-Jan-18 16:20 18.9
2018-Jan-18 16:15 146 0 gusting 1 18.9
2018-Jan-18 16:10 156 1 gusting 1 18.3
2018-Jan-18 16:00 19.4
2018-Jan-18 15:55 19.4
2018-Jan-18 15:45 19.4
2018-Jan-18 15:40 253 1 gusting 1 19.4
2018-Jan-18 15:30 218 1 gusting 1 19.4
2018-Jan-18 15:25 18.9
2018-Jan-18 15:20 291 0 gusting 2 19.4
2018-Jan-18 15:15 20.6
2018-Jan-18 15:10 270 0 gusting 1 20.6
2018-Jan-18 15:05 20.0
2018-Jan-18 15:00 010 0 gusting 1 20.6
2018-Jan-18 14:55 20.0
2018-Jan-18 14:50 20.6
2018-Jan-18 14:45 196 0 gusting 2 20.6
2018-Jan-18 14:40 187 1 gusting 2 20.6
2018-Jan-18 14:35 080 0 gusting 1 20.6
2018-Jan-18 14:30 20.0
2018-Jan-18 14:25 19.4
2018-Jan-18 14:20 18.9
2018-Jan-18 14:15 248 1 gusting 2 19.4
2018-Jan-18 14:10 17.8
2018-Jan-18 14:05 315 0 gusting 3 16.7
2018-Jan-18 14:00 249 0 gusting 3 16.7
2018-Jan-18 13:50 196 1 gusting 3 17.8
2018-Jan-18 13:45 217 0 gusting 3 17.2
2018-Jan-18 13:40 245 1 gusting 3 17.2
2018-Jan-18 13:35 147 2 gusting 3 17.2
2018-Jan-18 13:30 126 1 gusting 3 16.1
2018-Jan-18 13:20 131 2 gusting 4 16.1
2018-Jan-18 13:15 106 2 gusting 3 16.1
2018-Jan-18 13:10 15.6
2018-Jan-18 13:05 084 1 gusting 3 15.6
2018-Jan-18 13:00 097 1 gusting 3 15.6
2018-Jan-18 12:55 119 1 gusting 2 16.1
2018-Jan-18 12:50 134 1 gusting 2 16.1
2018-Jan-18 12:45 121 1 gusting 2 16.1
2018-Jan-18 12:30 131 0 gusting 1 15.0
2018-Jan-18 12:25 123 0 gusting 1 15.0
2018-Jan-18 12:20 124 0 gusting 3 14.4
2018-Jan-18 12:15 132 0 gusting 3 13.9
2018-Jan-18 12:10 13.3
2018-Jan-18 12:05 119 1 gusting 3 13.3
2018-Jan-18 12:00 121 0 gusting 3 12.8
2018-Jan-18 11:50 071 1 gusting 4 12.2
2018-Jan-18 11:45 108 2 gusting 3 12.2
2018-Jan-18 11:40 100 1 gusting 3 12.8
2018-Jan-18 11:35 083 0 gusting 3 12.2
2018-Jan-18 11:30 083 0 gusting 1 12.2
2018-Jan-18 11:25 086 1 gusting 3 11.7
2018-Jan-18 11:20 088 0 gusting 3 11.1
2018-Jan-18 11:15 079 1 gusting 3 11.1
2018-Jan-18 11:10 086 1 gusting 4 11.1
2018-Jan-18 11:05 090 2 gusting 4 11.1
2018-Jan-18 11:00 084 1 gusting 3 11.7
2018-Jan-18 10:55 095 0 gusting 2 11.7
2018-Jan-18 10:50 102 1 gusting 2 11.7
2018-Jan-18 10:45 091 1 gusting 1 11.7
2018-Jan-18 10:40 11.1
2018-Jan-18 10:35 10.6
2018-Jan-18 10:25 9.4
2018-Jan-18 10:20 062 1 gusting 3 9.4
2018-Jan-18 10:15 054 0 gusting 3 8.3
2018-Jan-18 10:10 053 1 gusting 5 7.8
2018-Jan-18 10:00 058 3 gusting 5 6.7
2018-Jan-18 09:55 049 2 gusting 5 6.7
2018-Jan-18 09:50 047 3 gusting 5 6.7
2018-Jan-18 09:45 049 3 gusting 4 6.7
2018-Jan-18 09:40 055 3 gusting 4 6.7
2018-Jan-18 09:35 6.7
2018-Jan-18 09:30 055 1 gusting 5 5.6
2018-Jan-18 09:25 054 3 gusting 6 5.0
2018-Jan-18 09:20 045 4 gusting 6 4.4
2018-Jan-18 09:15 044 4 gusting 6 4.4
2018-Jan-18 09:05 051 4 gusting 6 4.4
2018-Jan-18 09:00 058 4 gusting 6 5.0
2018-Jan-18 08:50 048 3 gusting 6 4.4
2018-Jan-18 08:45 046 3 gusting 6 4.4
2018-Jan-18 08:40 040 3 gusting 6 5.0
2018-Jan-18 08:35 034 4 gusting 6 5.6
2018-Jan-18 08:30 018 1 gusting 3 5.6
2018-Jan-18 08:25 355 1 gusting 3 5.0
2018-Jan-18 08:20 342 1 gusting 3 5.0
2018-Jan-18 08:15 341 0 gusting 3 4.4
2018-Jan-18 08:10 356 1 gusting 3 3.9
2018-Jan-18 08:05 350 1 gusting 3 3.3
2018-Jan-18 07:50 003 1 gusting 3 1.7
2018-Jan-18 07:40 012 1 gusting 1 0.6
2018-Jan-18 07:35 1.1
2018-Jan-18 07:30 1.1
2018-Jan-18 07:25 1.1
2018-Jan-18 07:20 001 1 gusting 3 1.1
2018-Jan-18 07:15 016 1 gusting 3 1.7
2018-Jan-18 07:10 040 1 gusting 3 1.7
2018-Jan-18 07:05 045 3 gusting 4 1.7
2018-Jan-18 06:45 054 3 gusting 4 1.7
2018-Jan-18 06:40 062 1 gusting 5 1.7
2018-Jan-18 06:25 046 2 gusting 6 2.2
2018-Jan-18 06:20 049 3 gusting 6 2.2
2018-Jan-18 06:15 049 5 gusting 6 2.2
2018-Jan-18 06:10 041 4 gusting 7 2.2
2018-Jan-18 06:05 039 3 gusting 7 2.2
2018-Jan-18 06:00 044 2 gusting 6 2.2
2018-Jan-18 05:55 046 3 gusting 7 2.2
2018-Jan-18 05:50 046 5 gusting 7 2.2
2018-Jan-18 05:45 046 3 gusting 6 2.2
2018-Jan-18 05:40 050 3 gusting 5 2.2
2018-Jan-18 05:35 045 1 gusting 5 2.2
2018-Jan-18 05:30 038 0 gusting 3 2.2
2018-Jan-18 05:20 047 2 gusting 6 2.2
2018-Jan-18 05:15 046 1 gusting 6 2.2
2018-Jan-18 05:10 046 3 gusting 6 2.2
2018-Jan-18 05:00 044 3 gusting 7 2.8
2018-Jan-18 04:55 049 3 gusting 7 2.8
2018-Jan-18 04:50 050 4 gusting 6 2.8
2018-Jan-18 04:45 046 3 gusting 6 2.8
2018-Jan-18 04:40 045 4 gusting 6 2.8
2018-Jan-18 04:35 034 2 gusting 6 2.8
2018-Jan-18 04:30 023 2 gusting 6 2.8
2018-Jan-18 04:25 012 1 gusting 3 2.8
2018-Jan-18 04:20 015 0 gusting 5 2.8
2018-Jan-18 04:10 031 1 gusting 6 2.8
2018-Jan-18 04:05 2.8
2018-Jan-18 03:55 038 3 gusting 6 2.8
2018-Jan-18 03:45 023 4 gusting 6 2.8
2018-Jan-18 03:40 034 2 gusting 6 2.8
2018-Jan-18 03:35 033 1 gusting 6 2.8
2018-Jan-18 03:30 015 3 gusting 6 2.8
2018-Jan-18 03:25 028 3 gusting 7 2.8
2018-Jan-18 03:20 038 4 gusting 7 2.8
2018-Jan-18 03:15 041 5 gusting 6 3.3
2018-Jan-18 03:10 046 3 gusting 6 3.3
2018-Jan-18 03:05 045 2 gusting 5 3.3
2018-Jan-18 03:00 041 2 gusting 7 3.3
2018-Jan-18 02:55 040 4 gusting 7 3.3
2018-Jan-18 02:50 036 2 gusting 4 3.3
2018-Jan-18 02:40 039 2 gusting 3 3.3
2018-Jan-18 02:30 042 1 gusting 6 3.3
2018-Jan-18 02:25 045 1 gusting 6 3.9
2018-Jan-18 02:15 042 5 gusting 6 3.9
2018-Jan-18 02:10 042 6 gusting 7 3.9
2018-Jan-18 02:05 042 3 gusting 7 3.9
2018-Jan-18 01:55 038 3 gusting 6 3.9
2018-Jan-18 01:50 049 2 gusting 5 3.9
2018-Jan-18 01:45 050 2 gusting 6 3.9
2018-Jan-18 01:40 051 4 gusting 6 3.9
2018-Jan-18 01:35 052 1 gusting 3 3.9
2018-Jan-18 01:30 046 1 gusting 3 3.9
2018-Jan-18 01:25 045 1 gusting 2 3.9
2018-Jan-18 01:20 048 0 gusting 2 3.9
2018-Jan-18 01:15 052 0 gusting 2 3.9
2018-Jan-18 01:10 064 1 gusting 2 3.9
2018-Jan-18 01:00 3.9
2018-Jan-18 00:55 068 0 gusting 3 4.4
2018-Jan-18 00:50 044 1 gusting 3 4.4
2018-Jan-18 00:45 008 1 gusting 2 3.9
2018-Jan-18 00:40 001 1 gusting 2 3.9
2018-Jan-18 00:35 276 1 gusting 1 3.9
2018-Jan-18 00:30 3.9
2018-Jan-18 00:25 3.9
2018-Jan-18 00:15 4.4
2018-Jan-18 00:10 4.4
2018-Jan-18 00:05 092 0 gusting 1 5.0
2018-Jan-18 00:00 5.0
2018-Jan-17 23:55 095 0 gusting 2 5.0
2018-Jan-17 23:50 087 1 gusting 2 5.0
2018-Jan-17 23:45 060 0 gusting 1 5.0
2018-Jan-17 23:40 5.6
2018-Jan-17 23:35 086 0 gusting 1 5.6
2018-Jan-17 23:25 053 1 gusting 2 5.6
2018-Jan-17 23:20 5.6
2018-Jan-17 23:15 065 1 gusting 1 5.6
2018-Jan-17 23:10 5.6
2018-Jan-17 23:05 109 0 gusting 2 5.6
2018-Jan-17 23:00 129 0 gusting 2 5.6
2018-Jan-17 22:55 109 0 gusting 1 5.6
2018-Jan-17 22:50 5.6
2018-Jan-17 22:45 5.6
2018-Jan-17 22:40 5.6
2018-Jan-17 22:35 5.6
2018-Jan-17 22:30 6.1
2018-Jan-17 22:25 6.1
2018-Jan-17 22:20 001 1 gusting 2 6.1